Location: Marcé
(47.5801°N, 0.3280°W)
Time: 00:20:48
(UTC+01:00)

SR - All Passes

Search period start: 30 November 2021 00:00
Search period end: 10 December 2021 00:00
Orbit: 583 x 871 km, 66.7° (Epoch: 29 November)

Date Brightness Start Highest point End Pass type
(mag) Time Alt. Az. Time Alt. Az. Time Alt. Az.
30 Nov - 00:34:38 10° SSE 00:38:15 23° ESE 00:41:43 10° ENE night (unlit)
30 Nov - 02:15:34 10° SW 02:20:00 49° NW 02:24:13 10° NNE night (unlit)
30 Nov - 04:01:28 10° NW 04:03:01 12° NNW 04:04:35 10° N night (unlit)
30 Nov - 09:10:46 10° NNW 09:14:49 39° NE 09:18:59 10° ESE daylight
30 Nov - 10:53:00 10° NW 10:56:41 27° WSW 11:00:29 10° S daylight
30 Nov - 23:47:30 10° ESE 23:48:44 11° ESE 23:49:57 10° E night (unlit)
01 Dec - 01:25:28 10° SSW 01:30:06 86° ESE 01:34:27 10° NE night (unlit)
01 Dec - 03:09:35 10° W 03:12:38 18° NW 03:15:37 10° N night (unlit)
01 Dec - 08:21:15 10° NNW 08:24:42 23° NE 08:28:13 10° E daylight
01 Dec - 10:02:45 10° NW 10:06:59 57° WSW 10:11:24 10° SSE daylight
02 Dec - 00:35:58 10° S 00:40:19 42° ESE 00:44:26 10° NE night (unlit)
02 Dec - 02:18:29 10° WSW 02:22:25 29° NW 02:26:12 10° NNE night (unlit)
02 Dec - 07:32:00 10° N 07:34:24 14° NNE 07:36:49 10° ENE visible
02 Dec - 09:12:51 10° NNW 09:17:10 71° NE 09:21:38 10° SE daylight
02 Dec - 10:56:12 10° WNW 10:58:39 15° WSW 11:01:10 10° SW daylight
02 Dec - 23:47:14 10° SSE 23:50:40 21° ESE 23:53:59 10° ENE night (unlit)
03 Dec - 01:27:55 10° SW 01:32:22 52° NW 01:36:37 10° NNE night (unlit)
03 Dec - 03:13:35 10° NW 03:15:21 12° NNW 03:17:05 10° N night (unlit)
03 Dec - 08:23:10 10° NNW 08:27:11 37° NE 08:31:19 10° ESE daylight
03 Dec - 10:05:18 10° NW 10:09:04 30° WSW 10:13:01 10° S daylight
04 Dec - 00:37:53 10° SSW 00:42:28 80° SE 00:46:49 10° NE night (unlit)
04 Dec - 02:21:50 10° W 02:24:58 19° NW 02:28:02 10° N night (unlit)
04 Dec - 07:33:40 10° NNW 07:37:02 22° NE 07:40:28 10° E visible
04 Dec - 09:15:07 10° NW 09:19:22 62° WSW 09:23:50 10° SSE daylight
04 Dec - 23:48:27 10° S 23:52:43 39° ESE 23:56:46 10° NE night (unlit)
05 Dec - 01:30:47 10° WSW 01:34:46 30° NW 01:38:37 10° NNE night (unlit)
05 Dec - 06:44:27 10° N 06:46:43 14° NNE 06:49:00 10° ENE visible
05 Dec - 08:25:14 10° NNW 08:29:32 66° NE 08:34:01 10° SE daylight
05 Dec - 10:08:22 10° WNW 10:11:04 16° WSW 10:13:51 10° SSW daylight
05 Dec - 22:59:50 10° SSE 23:03:05 19° ESE 23:06:13 10° ENE night (unlit)
06 Dec - 00:40:17 10° SW 00:44:45 56° NW 00:49:00 10° NNE night (unlit)
06 Dec - 02:25:44 10° WNW 02:27:40 13° NNW 02:29:34 10° N night (unlit)
06 Dec - 07:35:34 10° NNW 07:39:32 35° NE 07:43:38 10° ESE visible
06 Dec - 09:17:36 10° NW 09:21:29 32° WSW 09:25:32 10° S daylight
06 Dec - 23:50:18 10° SSW 23:54:51 74° ESE 23:59:11 10° NE night (unlit)
07 Dec - 01:34:04 10° W 01:37:18 19° NW 01:40:28 10° N night (unlit)
07 Dec - 06:46:06 10° N 06:49:22 21° NE 06:52:43 10° E visible
07 Dec - 08:27:27 10° NW 08:31:46 67° WSW 08:36:16 10° SSE daylight
07 Dec - 23:00:57 10° S 23:05:06 36° ESE 23:09:05 10° NE night (unlit)
08 Dec - 00:43:05 10° WSW 00:47:07 32° NW 00:51:01 10° NNE night (unlit)
08 Dec - 05:56:55 10° N 05:59:01 13° NNE 06:01:10 10° ENE visible
08 Dec - 07:37:36 10° NNW 07:41:54 61° NE 07:46:23 10° SE visible
08 Dec - 09:20:34 10° WNW 09:23:29 18° WSW 09:26:30 10° SSW daylight
08 Dec - 22:12:27 10° SSE 22:15:30 18° ESE 22:18:27 10° ENE night (unlit)
08 Dec - 23:52:38 10° SW 23:57:06 60° NW 00:01:22 10° NNE night (unlit)
09 Dec - 01:37:53 10° WNW 01:39:59 13° NNW 01:42:02 10° N night (unlit)
09 Dec - 06:47:58 10° NNW 06:51:53 33° NE 06:55:57 10° ESE visible
09 Dec - 08:29:55 10° NW 08:33:53 35° WSW 08:38:02 10° S daylight
09 Dec - 23:02:43 10° SSW 23:07:14 68° ESE 23:11:32 10° NE night (unlit)
